TimeEST,TemperatureF,Dew PointF,Humidity,Sea Level PressureIn,VisibilityMPH,Wind Direction,Wind SpeedMPH,Gust SpeedMPH,PrecipitationIn,Events,Conditions,WindDirDegrees,DateUTC
12:53 AM,50.0,48.0,93,30.18,10.0,SSE,8.1,-,0.01,,Overcast,160,2013-02-11 05:53:00
1:53 AM,54.0,51.1,90,30.17,10.0,South,10.4,-,0.01,,Mostly Cloudy,180,2013-02-11 06:53:00
2:53 AM,55.0,52.0,89,30.12,10.0,South,8.1,-,0.00,,Mostly Cloudy,170,2013-02-11 07:53:00
3:53 AM,55.9,54.0,93,30.10,10.0,South,11.5,-,N/A,,Mostly Cloudy,190,2013-02-11 08:53:00
4:10 AM,57.2,53.6,88,30.11,10.0,South,12.7,-,0.00,Rain,Light Rain,180,2013-02-11 09:10:00
4:53 AM,57.9,55.0,90,30.10,10.0,SSW,12.7,17.3,0.00,,Overcast,200,2013-02-11 09:53:00
5:36 AM,57.2,55.4,94,30.11,10.0,SSW,10.4,-,0.01,,Overcast,200,2013-02-11 10:36:00
5:53 AM,59.0,55.0,87,30.09,10.0,SSW,11.5,-,0.01,,Overcast,200,2013-02-11 10:53:00
5:59 AM,59.0,55.4,88,30.11,10.0,SSW,11.5,-,N/A,,Overcast,200,2013-02-11 10:59:00
6:53 AM,59.0,55.9,90,30.10,6.0,SSW,10.4,-,0.00,Rain,Light Rain,200,2013-02-11 11:53:00
7:53 AM,59.0,57.0,93,30.09,6.0,South,9.2,-,0.04,Rain,Light Rain,190,2013-02-11 12:53:00
8:11 AM,59.0,57.2,94,30.11,2.5,South,10.4,-,0.03,Rain,Light Rain,190,2013-02-11 13:11:00
8:53 AM,60.1,57.9,93,30.09,2.5,SSW,9.2,-,0.15,Rain,Light Rain,200,2013-02-11 13:53:00
9:00 AM,60.8,57.2,88,30.10,3.0,SSW,9.2,-,0.01,Rain,Light Rain,200,2013-02-11 14:00:00
9:53 AM,61.0,59.0,93,30.08,10.0,SSW,11.5,-,0.02,Rain,Light Rain,210,2013-02-11 14:53:00
10:53 AM,62.1,60.1,93,30.07,10.0,SSW,13.8,21.9,0.00,,Overcast,210,2013-02-11 15:53:00
11:53 AM,63.0,60.1,90,30.01,10.0,South,13.8,21.9,N/A,,Overcast,190,2013-02-11 16:53:00
12:28 PM,62.6,60.8,94,30.04,10.0,SW,15.0,19.6,N/A,,Overcast,230,2013-02-11 17:28:00
12:53 PM,64.0,60.1,87,30.02,10.0,SW,12.7,-,N/A,,Overcast,230,2013-02-11 17:53:00
1:53 PM,63.0,61.0,93,30.01,7.0,SW,12.7,-,N/A,,Overcast,220,2013-02-11 18:53:00
2:53 PM,64.9,60.1,84,29.99,10.0,SW,15.0,23.0,N/A,,Overcast,220,2013-02-11 19:53:00
3:53 PM,66.0,60.1,81,29.98,10.0,SW,13.8,-,N/A,,Mostly Cloudy,220,2013-02-11 20:53:00
4:33 PM,66.2,60.8,83,29.97,10.0,SW,13.8,21.9,N/A,,Scattered Clouds,220,2013-02-11 21:33:00
4:53 PM,64.9,60.1,84,29.96,10.0,SSW,12.7,-,N/A,,Scattered Clouds,210,2013-02-11 21:53:00
5:53 PM,64.0,60.1,87,29.97,10.0,SW,13.8,-,0.01,Rain,Light Rain,220,2013-02-11 22:53:00
6:53 PM,64.0,60.1,87,29.92,10.0,SSW,23.0,34.5,0.01,Rain,Light Rain,200,2013-02-11 23:53:00
7:27 PM,64.4,59.0,83,29.98,10.0,West,11.5,23.0,0.00,,Clear,270,2013-02-12 00:27:00
7:53 PM,63.0,57.9,84,29.96,10.0,SW,9.2,-,0.00,,Clear,230,2013-02-12 00:53:00
8:53 PM,63.0,57.9,84,29.98,10.0,WSW,11.5,-,N/A,,Scattered Clouds,250,2013-02-12 01:53:00
9:04 PM,62.6,57.2,82,30.00,10.0,WSW,10.4,-,N/A,,Mostly Cloudy,240,2013-02-12 02:04:00
9:34 PM,62.6,57.2,82,29.99,10.0,WSW,10.4,-,N/A,,Overcast,240,2013-02-12 02:34:00
9:53 PM,62.1,57.0,84,29.96,10.0,SW,11.5,-,N/A,,Overcast,220,2013-02-12 02:53:00
10:53 PM,61.0,55.0,81,29.96,10.0,WSW,11.5,-,N/A,,Clear,240,2013-02-12 03:53:00
11:53 PM,60.1,53.1,78,29.96,10.0,WSW,11.5,-,N/A,,Clear,250,2013-02-12 04:53:00